Temp
73 68 69 69 69 68 67 67 67 67 67 67 67 67 67 67 67 66 65 65 65 64 63 63 63 62 59 59 58 57 56 55 54 55 56 61 61 62 65 64 67 69 70
73 70 71 70 68 67 67 68 67 67 67 67 67 66 66 67 66 65 65 66 65 63 63 61 62 64 60 59 58 57 56 56 55 54 56 58 59 62 62 61 66 70 70
71 70 67 68 68 67 67 67 67 67 67 67 66 66 66 66 66 66 65 65 64 64 63 61 62 61 59 58 58 57 57 57 56 56 56 58 58 60 60 61 61 64 69
71 70 68 69 69 67 67 68 67 67 66 66 66 67 66 66 66 66 65 64 63 64 64 63 62 61 61 59 58 58 57 56 55 56 56 56 57 61 60 57 58 60 63
71 71 69 71 70 68 67 69 67 66 66 66 66 66 66 66 70 66 65 64 63 63 63 63 62 63 65 63 59 59 57 56 56 57 57 55 57 58 58 62 58 59 61
70 71 68 70 68 69 71 68 66 66 66 66 66 66 66 69 67 65 66 63 63 61 61 61 61 65 64 65 65 64 62 56 56 55 56 55 56 58 61 59 57 56 55
70 69 67 68 67 71 72 67 67 66 65 66 66 65 65 65 64 63 66 62 61 60 59 59 60 62 63 61 62 63 62 63 62 57 55 56 56 59 59 57 57 56 57
68 68 70 69 69 72 69 67 67 65 66 67 65 65 64 65 62 61 63 61 59 59 59 59 59 59 59 59 58 56 56 56 57 58 57 60 60 62 59 58 57 57 58
67 68 69 71 71 70 67 66 67 65 64 64 64 63 62 63 61 59 60 59 58 58 58 59 59 58 59 58 56 54 54 55 60 60 60 60 60 60 60 58 56 55 55
67 70 72 72 71 69 68 66 69 65 65 64 63 63 61 61 60 57 58 58 56 58 57 58 58 57 55 54 53 52 54 56 55 56 58 58 60 60 61 59 57 56 55
69 69 68 71 71 71 69 66 65 64 61 61 62 63 63 61 60 56 55 57 57 56 55 58 54 54 52 51 51 50 52 53 55 55 56 56 57 58 57 58 58 58 57
63 63 63 65 67 70 67 65 63 62 61 60 61 60 58 57 55 55 55 54 56 54 55 56 52 51 51 51 51 52 53 54 54 54 54 54 55 55 56 57 59 61 63
61 61 63 61 61 64 65 63 61 60 59 59 59 57 55 55 53 53 54 54 55 52 52 52 52 50 51 52 53 54 54 53 52 51 51 52 54 55 56 57 59 60 61
60 60 62 60 59 63 63 62 61 59 57 57 56 54 53 51 50 50 52 50 54 55 52 48 52 55 53 52 50 51 51 52 51 50 51 52 54 54 54 56 57 57 59
61 61 61 62 62 58 55 54 56 49 52 54 52 53 54 50 50 45 46 48 51 48 46 50 51 53 52 48 46 48 50 50 48 49 51 50 51 52 53 55 56 56 55
58 59 61 62 59 54 51 49 46 45 43 43 45 49 48 48 45 44 43 42 42 43 47 46 46 46 45 43 43 45 47 47 46 48 50 50 50 50 51 53 55 55 54
61 62 60 59 57 53 51 51 50 49 45 43 43 45 47 46 43 43 42 42 43 47 45 43 42 42 41 41 41 42 44 49 47 48 48 50 50 50 50 51 52 52 53
61 58 58 57 58 55 53 52 50 50 48 48 45 44 44 44 44 43 46 47 46 45 42 41 43 41 40 40 40 41 44 49 51 49 51 51 47 49 49 49 49 50 50
60 60 60 58 58 57 56 55 53 52 50 49 47 45 44 44 44 43 46 50 44 43 42 42 42 42 41 40 40 41 42 43 46 45 46 48 49 46 48 49 49 48 49
59 58 58 57 55 54 53 53 52 51 50 48 47 47 47 47 46 46 47 49 45 43 43 43 42 40 40 39 38 39 40 40 41 42 42 44 46 47 47 47 48 48 48
60 60 59 56 55 54 53 52 52 50 49 47 46 46 43 46 45 45 44 44 44 44 43 42 40 40 39 37 36 35 37 37 37 38 40 41 44 44 46 48 50 50 49
58 58 59 57 55 54 53 52 53 51 50 47 45 46 44 45 44 44 44 45 45 44 43 41 39 37 36 34 33 34 34 34 35 36 37 39 43 44 45 46 48 50 51
58 57 56 54 54 53 53 54 55 54 53 52 50 49 45 44 44 43 45 45 43 42 41 40 38 36 35 34 33 32 32 32 32 34 35 39 41 42 43 44 45 47 49
55 54 54 53 52 52 52 52 52 53 56 54 51 50 45 45 45 45 45 44 43 42 40 39 38 36 35 33 32 31 31 31 32 33 36 39 40 41 43 43 44 46 46
54 56 53 52 51 50 50 50 49 50 51 55 52 48 46 45 45 45 44 44 42 40 40 39 38 38 37 35 34 32 32 33 34 35 37 40 41 41 41 41 41 44 45
54 56 53 51 51 50 49 49 49 49 48 49 47 45 47 46 45 44 43 43 42 41 40 38 38 39 38 36 35 33 31 33 34 33 37 39 39 39 40 41 43 42 43
MSLP
1011.73 1012.60 1013.20 1013.51 1013.92 1014.36 1014.93 1015.16 1015.27 1015.53 1015.74 1015.78 1015.90 1015.91 1015.89 1015.89 1015.95 1016.13 1016.09 1016.00 1016.14 1016.21 1016.27 1016.36 1016.31 1016.37 1016.58 1016.75 1016.90 1016.98 1017.18 1017.29 1017.13 1016.11 1015.69 1014.86 1014.10 1013.39 1012.57 1011.91 1011.09 1010.24 1009.41
1011.13 1011.91 1012.49 1013.00 1013.59 1014.04 1014.40 1014.62 1014.88 1015.18 1015.40 1015.39 1015.50 1015.58 1015.54 1015.53 1015.44 1015.52 1015.69 1015.90 1015.95 1016.00 1016.01 1016.15 1015.87 1015.84 1016.03 1016.09 1016.29 1016.51 1016.56 1016.49 1016.62 1015.84 1015.09 1014.59 1013.91 1012.93 1012.38 1011.67 1010.68 1009.69 1008.74
1010.72 1011.73 1012.34 1012.67 1013.05 1013.45 1013.76 1014.08 1014.41 1014.65 1014.85 1014.98 1015.16 1015.26 1015.30 1015.17 1015.12 1014.96 1014.94 1014.93 1015.26 1015.35 1015.34 1015.51 1015.34 1015.33 1015.42 1015.51 1015.64 1015.82 1015.73 1015.74 1015.69 1015.52 1014.73 1014.06 1013.48 1012.64 1011.76 1010.97 1010.25 1009.32 1008.25
1010.09 1010.83 1011.38 1011.86 1012.41 1012.81 1013.10 1013.59 1013.85 1014.11 1014.38 1014.68 1014.72 1014.71 1014.64 1014.60 1014.76 1014.69 1014.62 1014.62 1014.64 1014.60 1014.50 1014.70 1014.70 1014.76 1014.69 1014.71 1014.92 1014.94 1014.95 1014.92 1014.92 1014.84 1014.29 1013.56 1012.89 1011.94 1011.35 1010.65 1009.51 1008.77 1007.96
1009.32 1010.31 1011.06 1011.45 1011.85 1012.29 1012.69 1012.98 1013.20 1013.54 1013.84 1014.06 1014.27 1014.33 1014.30 1014.30 1014.12 1014.26 1014.32 1014.20 1014.24 1014.28 1014.23 1014.20 1014.11 1013.97 1013.86 1013.85 1014.06 1014.06 1014.16 1014.20 1014.17 1014.00 1013.59 1012.96 1012.08 1011.36 1010.77 1009.85 1009.22 1008.14 1006.91
1009.16 1009.59 1010.53 1011.16 1011.74 1011.93 1012.04 1012.38 1012.73 1012.91 1013.24 1013.67 1013.81 1013.87 1013.95 1013.82 1013.68 1013.59 1013.84 1013.90 1013.95 1013.90 1013.92 1013.54 1013.48 1013.38 1013.24 1012.99 1012.94 1013.04 1012.92 1013.18 1013.22 1013.18 1012.84 1012.27 1011.38 1010.73 1009.96 1009.31 1008.56 1007.88 1006.27
1007.74 1008.74 1009.88 1010.60 1011.10 1011.32 1011.32 1011.90 1012.24 1012.50 1012.78 1013.07 1013.10 1013.26 1013.41 1013.40 1013.31 1013.35 1013.38 1013.53 1013.63 1013.44 1013.56 1013.64 1013.34 1012.92 1012.70 1012.53 1012.35 1012.38 1012.40 1012.19 1012.03 1012.16 1012.06 1011.37 1010.71 1009.82 1009.12 1008.11 1007.38 1006.60 1005.68
1008.31 1009.13 1009.39 1009.67 1010.32 1010.69 1011.05 1011.43 1011.61 1011.87 1012.38 1012.72 1012.77 1012.67 1012.93 1012.82 1012.83 1012.99 1013.00 1013.26 1013.34 1013.28 1013.24 1013.25 1013.13 1012.74 1012.31 1012.28 1012.07 1012.06 1012.00 1011.75 1011.38 1011.18 1010.96 1010.33 1009.64 1008.71 1008.10 1007.04 1005.60 1004.63 1004.08
1007.81 1008.29 1008.39 1008.94 1009.48 1010.12 1010.65 1010.69 1010.91 1011.59 1011.97 1012.10 1012.46 1013.10 1013.17 1012.94 1012.34 1012.32 1012.84 1013.04 1013.18 1013.07 1013.04 1012.99 1012.62 1012.29 1012.21 1012.00 1012.04 1012.04 1011.91 1011.40 1010.76 1010.36 1009.97 1009.31 1008.58 1007.78 1006.73 1005.27 1003.67 1002.93 1001.78
1007.02 1007.43 1007.72 1008.07 1008.91 1009.50 1009.68 1009.85 1010.31 1011.04 1011.58 1012.23 1012.74 1012.43 1012.21 1012.42 1012.48 1012.06 1012.47 1012.88 1012.99 1013.09 1012.87 1012.72 1012.43 1012.15 1012.17 1012.13 1012.14 1012.10 1011.84 1011.29 1010.80 1010.11 1009.34 1008.35 1007.63 1006.41 1005.11 1003.81 1002.35 1000.67 1000.12
1006.62 1007.56 1008.36 1008.66 1008.64 1008.48 1009.00 1009.62 1010.24 1010.79 1011.57 1012.02 1012.58 1012.37 1012.12 1011.98 1012.21 1011.89 1012.57 1012.98 1013.05 1012.96 1012.90 1012.77 1012.53 1012.23 1012.12 1012.09 1012.05 1011.99 1011.94 1011.30 1010.56 1009.91 1009.03 1008.01 1006.94 1005.58 1003.90 1002.21 1000.90 999.53 999.10
1007.76 1008.93 1009.78 1010.44 1010.22 1009.50 1008.74 1009.63 1010.64 1011.20 1011.56 1011.45 1011.75 1012.23 1012.27 1011.98 1012.02 1011.99 1012.64 1012.78 1012.84 1012.72 1012.82 1012.71 1012.53 1012.14 1012.01 1011.92 1011.79 1011.73 1011.54 1010.97 1010.35 1009.67 1008.87 1007.97 1006.81 1005.23 1002.90 1001.14 999.53 998.05 998.08
1007.76 1008.74 1009.04 1008.74 1010.88 1011.08 1009.72 1010.14 1010.38 1010.85 1011.19 1011.57 1011.72 1012.04 1012.39 1012.47 1012.20 1012.67 1012.67 1012.66 1012.65 1012.65 1012.57 1012.28 1012.08 1012.14 1012.14 1012.01 1011.78 1011.66 1011.40 1010.86 1010.40 1009.74 1009.00 1008.04 1006.93 1005.30 1003.07 1000.87 999.26 998.04 997.54
1008.08 1008.68 1008.10 1008.29 1010.98 1011.39 1010.87 1010.57 1010.91 1011.19 1011.66 1011.44 1011.55 1011.83 1012.23 1012.62 1012.95 1012.87 1012.81 1012.73 1012.53 1012.47 1012.37 1012.19 1012.14 1012.24 1012.13 1012.13 1011.94 1011.83 1011.41 1010.98 1010.55 1009.86 1009.02 1008.10 1006.88 1005.34 1003.59 1001.50 999.96 998.46 997.46
1007.16 1007.55 1008.03 1008.25 1009.30 1010.28 1010.90 1011.46 1011.63 1012.25 1011.48 1011.19 1011.49 1011.87 1012.51 1012.95 1012.86 1012.97 1013.01 1012.98 1012.86 1012.90 1012.57 1012.38 1012.62 1012.42 1012.36 1012.54 1012.45 1011.99 1011.48 1011.01 1010.54 1009.80 1009.13 1008.08 1006.83 1005.73 1004.36 1002.68 1001.07 1000.02 999.03
1007.42 1007.48 1007.76 1008.22 1010.18 1010.32 1011.12 1012.56 1012.87 1012.58 1012.09 1011.64 1011.65 1011.94 1012.61 1012.77 1012.90 1012.88 1012.76 1012.77 1012.75 1012.85 1012.95 1013.06 1013.08 1013.03 1013.04 1013.15 1012.89 1012.34 1011.84 1011.29 1010.58 1009.89 1009.17 1008.36 1007.47 1006.66 1005.24 1003.65 1002.48 1001.14 999.89
1006.66 1007.10 1006.75 1007.55 1008.66 1010.10 1010.92 1011.39 1012.14 1012.58 1012.17 1012.09 1012.13 1012.29 1012.53 1012.73 1012.96 1012.76 1012.26 1012.32 1012.48 1012.66 1013.04 1013.33 1013.45 1013.49 1013.56 1013.53 1013.29 1012.93 1012.47 1011.54 1010.70 1010.00 1009.39 1008.70 1008.01 1007.05 1005.64 1004.83 1003.76 1002.62 1001.25
1007.03 1008.57 1006.60 1008.03 1008.50 1009.52 1010.17 1010.70 1011.56 1011.98 1012.14 1012.57 1012.56 1012.72 1012.78 1012.91 1012.88 1012.84 1012.75 1012.80 1013.18 1013.24 1013.46 1013.59 1013.69 1013.80 1013.80 1013.74 1013.51 1013.25 1012.71 1011.85 1011.03 1010.50 1009.82 1009.19 1008.44 1007.65 1006.35 1006.02 1004.83 1003.86 1002.77
1007.59 1007.91 1007.80 1007.91 1007.77 1008.49 1009.56 1010.33 1010.92 1011.62 1011.96 1012.36 1012.90 1012.75 1012.81 1012.85 1012.92 1013.08 1012.96 1013.14 1013.43 1013.51 1013.62 1013.77 1013.79 1013.87 1013.98 1013.97 1013.78 1013.46 1013.04 1012.51 1011.82 1011.14 1010.40 1009.62 1008.86 1007.98 1007.39 1006.88 1006.03 1005.05 1004.23
1007.15 1007.69 1008.50 1008.62 1008.35 1009.23 1009.44 1009.92 1010.52 1011.18 1011.86 1012.37 1012.51 1012.68 1012.96 1013.18 1013.35 1013.43 1013.39 1013.27 1013.53 1013.59 1013.71 1013.86 1013.96 1014.03 1014.09 1014.11 1014.03 1013.74 1013.42 1013.07 1012.66 1011.95 1011.22 1010.34 1009.38 1008.68 1008.16 1007.44 1006.57 1005.98 1005.24
1006.63 1007.11 1007.69 1008.15 1008.36 1008.88 1009.51 1009.98 1010.16 1010.75 1011.52 1012.12 1012.39 1012.70 1012.74 1013.09 1013.42 1013.58 1013.58 1013.45 1013.44 1013.52 1013.72 1013.90 1013.99 1014.19 1014.25 1014.29 1014.22 1014.08 1013.94 1013.76 1013.32 1012.79 1012.06 1011.15 1010.19 1009.44 1008.61 1007.95 1007.30 1006.73 1006.16
1006.85 1007.12 1007.64 1008.07 1008.41 1008.81 1009.24 1009.77 1010.28 1010.54 1011.19 1011.96 1012.35 1012.69 1012.59 1013.04 1013.39 1013.55 1013.50 1013.29 1013.27 1013.37 1013.64 1013.88 1014.25 1014.47 1014.57 1014.53 1014.49 1014.43 1014.32 1014.19 1013.80 1013.28 1012.64 1011.78 1010.83 1010.04 1009.30 1008.69 1008.03 1007.38 1006.91
1006.86 1007.32 1007.56 1008.16 1008.61 1008.67 1009.10 1009.55 1010.07 1010.54 1010.89 1011.35 1011.79 1012.27 1012.63 1012.97 1013.23 1013.30 1013.22 1013.18 1013.34 1013.54 1013.80 1014.02 1014.34 1014.64 1014.71 1014.64 1014.62 1014.65 1014.61 1014.43 1014.23 1013.79 1013.16 1012.30 1011.53 1010.81 1010.14 1009.57 1009.05 1008.47 1007.91
1007.01 1007.56 1007.90 1008.19 1008.58 1008.78 1008.97 1009.54 1009.90 1009.97 1010.23 1010.74 1011.26 1011.82 1012.26 1012.62 1012.86 1012.91 1012.97 1013.06 1013.38 1013.69 1013.85 1014.07 1014.30 1014.49 1014.64 1014.70 1014.66 1014.68 1014.67 1014.45 1014.03 1013.72 1013.23 1012.63 1012.17 1011.56 1010.99 1010.52 1010.02 1009.44 1009.05
1007.34 1007.55 1007.68 1008.18 1008.46 1008.75 1009.18 1009.43 1009.88 1009.77 1009.87 1010.21 1010.71 1011.26 1011.74 1012.11 1012.44 1012.65 1012.76 1012.83 1013.20 1013.54 1013.87 1014.04 1014.23 1014.36 1014.46 1014.53 1014.57 1014.46 1014.37 1014.13 1013.84 1013.46 1013.01 1012.73 1012.42 1012.00 1011.62 1011.34 1010.92 1010.49 1009.93
1007.43 1007.60 1007.79 1007.82 1008.13 1008.55 1008.95 1009.27 1009.36 1009.43 1009.62 1009.96 1010.32 1010.75 1011.15 1011.65 1012.01 1012.31 1012.50 1012.63 1012.84 1013.19 1013.62 1013.92 1014.12 1014.29 1014.43 1014.53 1014.51 1014.47 1014.29 1013.99 1013.73 1013.47 1013.21 1013.05 1012.80 1012.54 1012.23 1011.91 1011.54 1011.33 1011.12
Wind_Speed
13 10 8 8 8 8 7 7 6 4 5 4 5 5 5 5 5 4 5 6 4 4 4 6 7 6 4 4 4 3 3 3 6 4 3 9 12 13 13 12 14 14 11
12 12 11 9 8 8 7 7 7 7 5 6 6 6 6 6 6 5 5 5 5 6 6 6 8 5 6 6 5 6 5 5 4 11 5 6 11 13 12 14 12 12 12
12 12 8 9 9 9 8 7 7 7 7 6 6 6 6 7 6 6 6 6 6 7 7 6 7 7 7 5 6 5 5 5 5 6 9 6 7 11 11 9 10 12 12
13 13 12 11 10 9 8 8 8 7 7 7 7 7 7 7 6 7 6 6 7 7 6 6 7 8 9 8 6 8 6 6 4 6 7 10 8 11 9 9 11 9 11
14 14 12 12 9 8 8 9 8 7 7 7 7 7 7 6 5 7 6 5 5 5 6 6 6 10 15 11 6 8 8 6 6 8 9 9 10 10 12 11 11 12 13
14 15 10 8 8 10 11 10 8 8 7 6 7 7 7 4 7 9 7 6 5 5 6 7 6 9 10 12 14 17 11 6 8 5 8 10 14 12 13 13 12 12 14
17 13 11 10 10 13 12 9 10 9 7 8 7 7 7 7 9 11 9 5 5 6 5 5 6 5 9 7 7 10 9 10 9 4 8 12 13 14 15 17 16 13 14
12 12 13 13 14 13 10 10 9 5 8 8 7 7 6 6 9 9 7 5 5 4 3 5 6 8 6 6 3 4 6 6 6 5 7 12 14 16 16 18 20 18 15
14 15 13 14 15 11 11 10 8 5 5 6 3 5 4 7 8 7 6 3 4 5 5 6 5 6 3 1 2 5 6 7 7 11 16 20 25 26 25 17 14 13 14
15 17 12 13 11 12 12 10 7 4 4 4 1 3 5 6 8 7 6 2 1 3 5 5 2 3 1 3 3 4 8 9 9 12 13 15 18 19 26 18 12 15 11
11 5 3 4 13 13 9 5 5 5 7 5 4 6 2 5 7 7 5 1 2 2 3 3 3 4 5 3 2 2 5 9 10 9 9 11 13 15 15 14 12 9 10
13 12 12 13 11 7 7 4 6 5 4 3 5 5 3 3 1 3 5 5 3 1 3 2 3 6 4 4 3 5 8 8 6 7 8 10 12 14 18 17 15 9 11
12 9 10 16 13 18 6 5 6 5 4 4 4 1 3 2 4 5 4 4 4 1 1 4 5 5 2 4 7 9 8 5 5 7 8 9 11 14 20 16 13 13 10
9 6 8 13 7 15 4 2 4 3 3 3 3 4 4 2 0 2 3 3 4 4 6 4 6 3 4 4 4 5 4 4 6 6 7 9 10 11 15 15 11 13 3
10 10 12 12 14 7 2 4 2 2 2 4 3 4 4 3 2 2 2 3 3 3 5 3 2 2 3 4 4 4 4 4 5 6 7 8 8 10 12 14 13 8 8
6 5 6 8 5 5 6 4 10 7 5 7 8 6 3 3 1 5 8 9 7 4 2 2 2 3 4 4 4 5 4 7 5 6 7 6 7 9 11 12 12 13 10
7 3 5 8 8 8 5 6 6 3 9 10 9 8 7 6 3 8 8 4 5 6 3 3 2 3 3 3 4 4 4 7 6 6 5 7 7 8 11 11 12 11 12
3 9 5 4 7 7 7 6 4 6 5 3 3 2 3 2 5 8 5 6 4 5 2 2 2 1 2 3 4 3 5 7 7 7 7 7 7 7 9 10 10 11 11
2 1 1 3 5 6 5 5 6 5 5 4 2 1 3 3 2 4 6 3 2 2 2 2 1 1 2 3 3 4 4 5 6 7 8 8 8 6 7 8 8 13 10
4 4 3 2 5 4 4 6 6 5 5 5 4 3 1 3 1 1 1 2 2 2 3 2 1 0 2 2 3 4 4 5 6 6 7 8 8 7 7 7 8 9 9
4 3 7 4 5 5 4 4 6 5 5 4 4 3 5 4 3 3 2 2 3 3 2 1 2 2 3 3 3 4 4 4 4 5 6 7 7 7 8 7 7 7 8
5 5 5 4 4 5 5 5 4 4 5 5 4 3 8 3 3 3 2 2 2 4 4 5 4 4 3 3 3 4 4 4 5 5 6 6 7 7 7 7 7 8 8
4 4 4 3 3 5 4 4 4 5 7 6 6 5 4 4 4 4 3 2 4 4 4 5 5 4 3 3 4 3 4 4 4 4 5 6 6 7 6 6 6 7 8
6 6 5 4 4 4 4 4 3 6 8 7 7 6 5 5 5 5 4 4 5 5 4 5 4 5 4 3 2 2 1 3 4 3 4 4 5 6 6 5 6 8 8
3 3 5 5 5 4 4 3 4 4 4 5 6 6 6 5 5 5 5 5 5 5 5 5 4 6 6 5 3 2 4 6 5 6 4 5 6 8 5 4 4 5 9
3 2 3 4 5 5 5 4 5 5 5 5 5 5 7 7 5 5 5 5 5 5 7 5 6 8 7 4 2 2 3 6 6 6 4 4 5 5 5 6 8 4 6
Wind_Direction
171 172 180 180 179 166 179 187 192 203 220 208 221 225 231 237 253 263 265 250 240 243 222 217 225 191 200 197 197 189 209 188 268 274 245 298 304 308 309 304 298 282 266
170 180 188 174 176 175 185 190 193 205 205 205 213 222 231 235 231 228 244 254 240 245 243 234 236 205 215 209 204 213 217 214 223 276 291 290 297 306 298 300 301 295 270
171 176 184 181 179 182 185 189 193 200 216 222 221 233 242 241 244 242 236 238 231 233 233 232 238 212 223 221 217 221 224 230 229 256 284 289 291 297 295 291 292 294 283
170 179 181 181 184 178 177 189 194 200 210 220 231 234 233 243 249 253 249 245 241 241 244 232 235 220 224 223 222 233 237 245 238 262 277 285 287 295 288 296 297 291 296
172 181 186 191 176 176 183 197 201 204 210 216 226 237 244 241 242 239 237 221 230 259 270 260 244 233 237 225 211 238 234 242 253 274 281 282 291 303 299 302 287 287 282
176 188 183 179 179 197 198 203 202 213 213 219 229 236 250 250 256 207 198 217 231 235 255 263 261 269 269 247 236 231 230 222 250 253 274 276 289 287 297 291 285 285 285
180 175 179 187 201 204 203 197 209 214 206 221 226 219 237 244 251 232 214 213 229 242 271 292 290 268 260 259 266 264 274 279 259 239 264 277 285 286 294 287 279 261 262
179 189 183 184 210 207 200 207 212 200 212 221 225 224 225 248 244 238 227 232 267 287 280 276 275 289 286 265 272 296 284 273 271 268 258 276 283 284 285 278 280 267 256
183 196 189 191 202 197 207 206 210 204 214 219 238 275 263 280 255 242 194 227 263 298 296 287 281 274 261 243 318 296 290 281 269 277 282 282 280 277 284 285 277 267 249
181 201 192 200 200 203 208 198 200 191 216 91 100 231 260 281 279 219 195 190 275 280 289 299 318 185 143 17 332 314 302 303 313 310 305 304 301 298 303 287 278 272 220
180 191 266 224 211 206 194 163 146 157 115 92 340 281 280 232 238 224 181 171 249 292 297 291 245 172 120 65 56 5 288 300 301 299 304 302 302 311 311 297 290 255 216
77 67 55 26 357 291 158 118 113 121 117 159 213 243 234 139 55 138 196 214 236 227 284 299 198 156 122 60 32 326 320 327 316 310 309 311 312 314 313 316 317 264 216
108 109 117 57 356 327 339 134 136 154 156 229 223 245 149 71 61 42 57 39 39 42 263 312 185 143 63 357 4 356 332 331 322 325 319 314 311 310 314 319 329 340 222
99 88 99 116 182 264 252 196 151 176 173 166 150 133 134 118 88 353 344 344 351 8 338 330 171 143 55 8 3 328 320 330 325 315 317 310 308 321 322 330 340 349 3
158 179 166 165 186 175 40 355 40 314 236 145 143 139 146 186 241 231 287 319 328 15 335 65 78 25 22 356 328 326 323 333 324 325 317 322 333 330 322 331 344 354 6
198 208 161 159 166 150 142 144 52 63 53 82 120 115 57 103 167 287 276 259 264 263 85 82 56 19 26 353 345 331 325 332 314 325 311 319 343 331 331 339 345 353 4
198 207 159 154 150 158 159 150 140 38 46 43 81 123 115 134 344 329 327 204 190 125 94 74 71 31 7 349 349 338 316 321 316 316 317 332 333 338 349 344 345 352 358
38 295 101 174 152 150 149 148 154 154 142 142 353 63 95 76 26 10 67 59 51 38 76 109 93 56 23 2 350 336 320 325 342 333 339 345 338 330 359 350 348 355 354
107 319 251 153 131 133 142 154 144 149 147 139 131 172 209 221 72 2 65 105 133 113 113 105 137 91 17 350 343 335 343 338 345 345 340 341 342 343 352 349 352 352 359
63 27 175 161 113 122 129 134 131 141 145 158 153 164 164 93 122 276 37 115 131 144 159 169 190 360 353 357 353 1 5 4 349 347 338 335 339 345 343 340 356 358 351
168 170 156 146 137 137 144 149 145 145 153 156 150 178 176 143 169 190 206 185 156 155 172 149 59 109 65 29 25 28 22 4 347 344 335 333 335 343 340 345 353 2 1
152 149 139 145 139 144 150 147 156 147 155 161 169 190 161 138 173 188 208 224 182 132 135 119 104 100 92 68 52 48 34 11 349 346 336 331 340 347 348 355 2 11 20
134 118 114 138 164 153 157 172 169 178 177 175 167 170 170 174 192 202 177 138 136 128 124 111 114 100 85 79 72 67 45 1 329 313 324 336 348 350 355 351 2 7 11
123 135 146 145 151 158 152 175 209 202 179 176 171 179 177 182 192 199 174 145 142 137 131 127 127 129 112 92 68 52 11 324 310 316 327 353 356 357 12 1 5 13 21
138 157 151 171 177 193 206 192 206 192 171 160 174 173 178 177 182 189 181 166 145 144 150 140 134 136 130 121 101 32 349 348 357 339 360 18 24 19 5 14 4 15 23
72 95 209 189 194 198 197 203 200 195 196 181 168 172 172 174 177 181 181 170 157 155 156 158 160 154 148 150 136 30 6 7 9 360 19 27 32 23 20 16 21 19 24